Wind_Speed
37 33 30 29 27 24 21 18 15 12 10 7 5 4 5 7 9 10 12 14 15 16 16 15 14 9 3 6 2 10 15 14 12 15 15 5 7 3 4 1 3 4 4 6 6 5 8
38 35 32 31 28 25 22 19 16 13 10 8 6 4 4 6 9 10 12 13 15 16 15 13 12 5 4 5 5 11 15 12 14 15 7 6 2 2 3 2 3 3 4 4 9 9 6
38 37 33 32 30 27 23 20 17 14 11 8 6 5 5 7 9 10 12 13 15 14 11 10 9 6 7 3 4 16 14 10 8 13 2 2 2 4 2 3 3 3 5 4 10 13 5
40 39 35 34 31 28 25 21 18 15 11 8 6 5 6 7 10 11 12 13 13 11 9 5 6 3 2 4 8 14 14 9 11 9 2 1 3 4 3 1 6 5 5 4 5 13 7
32 41 37 35 33 29 26 22 19 15 11 8 6 5 6 8 10 11 11 11 9 6 4 3 2 5 1 4 11 12 12 9 16 9 6 5 5 4 6 4 5 7 2 4 6 13 4
27 43 39 36 34 30 27 23 19 16 11 8 6 5 6 7 9 11 9 7 2 2 2 3 5 5 6 5 7 14 17 10 3 5 5 8 6 4 5 5 1 1 4 3 6 8 17
28 44 40 37 35 31 28 23 20 16 12 9 6 4 6 6 7 12 7 1 5 4 11 3 0 3 2 9 4 13 17 6 5 8 4 5 7 3 1 2 4 6 5 2 3 6 12
16 45 41 39 37 32 28 23 20 16 12 9 7 4 5 6 6 12 4 7 2 3 6 2 2 2 1 4 5 10 14 6 6 4 3 7 4 3 6 6 6 5 5 4 4 13 13
3 44 42 41 38 33 28 23 20 16 12 9 7 4 4 4 3 5 12 6 3 4 6 4 2 3 3 5 3 8 6 2 5 6 5 5 1 3 3 6 7 2 7 1 3 6 9
21 19 43 42 39 33 28 24 19 15 12 8 6 4 4 2 1 2 4 4 3 3 5 6 4 3 2 1 4 4 10 2 6 3 3 5 4 4 5 5 1 1 2 3 3 5 4
11 4 41 41 37 33 29 25 20 16 12 8 5 2 3 1 7 3 2 3 3 1 4 0 2 1 4 6 2 7 10 7 3 4 4 1 3 4 6 2 2 3 2 1 3 2 3
15 13 43 41 37 33 31 26 21 16 12 9 5 2 1 1 3 4 3 4 2 6 2 1 2 3 4 6 5 6 8 9 1 4 5 1 3 3 2 3 2 3 4 6 4 3 2
18 15 42 41 39 34 31 26 21 16 13 9 5 2 1 1 2 2 4 3 5 6 0 2 2 3 3 5 5 6 5 7 4 3 6 6 3 6 4 3 5 10 6 3 3 3 4
21 17 43 40 37 37 31 27 21 16 14 10 7 5 6 5 2 3 2 5 4 3 3 2 4 3 3 3 4 6 3 4 6 5 4 3 3 5 7 3 1 4 4 4 3 2 4
22 14 40 42 39 34 30 26 22 20 14 11 11 7 3 5 4 2 5 5 7 5 4 6 4 3 2 2 4 5 4 2 2 4 3 2 2 4 3 3 2 1 4 3 5 2 1
24 21 41 39 37 34 31 26 23 19 16 14 8 6 2 5 4 3 5 5 3 3 4 3 4 2 3 2 2 3 1 1 1 4 1 2 4 2 5 2 4 3 3 3 3 1 4
28 25 39 42 39 36 31 28 25 21 18 13 4 3 3 3 3 4 4 4 4 2 3 4 3 3 3 4 3 2 2 1 2 2 4 2 3 5 2 5 0 5 3 5 4 3 3
23 25 37 41 38 34 31 27 24 21 19 13 4 3 6 4 4 2 4 5 2 3 4 4 4 3 4 3 3 3 4 1 3 1 2 0 4 1 0 5 1 2 3 3 4 2 0
25 24 36 39 36 33 29 27 25 24 22 8 3 1 6 5 4 1 2 2 2 3 3 3 3 2 2 4 3 2 3 2 2 2 5 4 1 2 5 4 2 6 2 4 5 2 5
29 34 43 41 36 32 29 27 25 25 21 8 3 2 4 4 1 5 5 2 4 3 4 4 4 4 4 3 5 5 3 1 2 2 5 4 2 4 5 2 1 2 2 1 3 3 2
34 30 31 39 35 32 30 28 27 27 20 5 3 1 2 3 2 3 2 5 5 4 3 3 3 4 6 4 3 3 2 2 3 3 3 4 2 2 4 4 2 4 7 6 8 5 6
27 31 33 31 32 28 27 26 25 25 16 5 4 4 3 2 3 6 1 5 6 3 4 3 5 4 4 6 7 8 6 4 5 1 2 2 1 3 4 3 3 5 11 9 5 4 7
29 29 30 28 24 23 23 23 22 23 13 5 3 3 4 3 2 4 5 5 7 8 2 3 7 5 4 4 3 1 3 4 6 8 4 4 5 3 4 4 7 7 4 5 4 1 4
28 26 24 22 18 18 19 20 19 19 12 7 5 5 4 1 2 5 5 2 4 4 7 2 4 5 3 8 5 5 8 7 6 4 3 6 5 2 2 4 2 4 3 2 4 3 4
24 24 24 21 16 16 16 18 19 20 11 8 8 4 3 2 1 2 6 5 6 5 4 3 3 1 9 5 4 4 4 3 1 2 2 2 5 2 2 2 7 1 1 4 3 3 6
23 22 22 21 15 12 11 14 16 17 12 7 9 7 4 6 3 3 4 3 5 4 3 2 2 5 6 3 3 5 4 4 3 2 4 5 4 4 3 3 5 2 4 3 3 4 8
24 23 21 18 15 13 11 10 12 15 15 9 6 5 5 4 2 1 3 4 5 4 4 3 4 2 3 2 3 3 4 3 5 6 5 3 1 4 3 3 8 5 4 3 2 4 5
23 22 22 20 20 12 9 11 12 15 16 11 8 5 3 3 2 2 1 4 3 2 5 5 4 2 3 2 3 3 3 5 3 4 6 6 6 4 3 1 8 5 3 6 3 3 5
22 20 21 23 20 16 12 10 11 11 12 13 8 13 14 11 3 4 9 10 4 1 4 2 3 3 5 4 1 3 1 1 3 2 2 3 6 5 8 5 1 1 0 2 3 4 4
Wind_Direction
216 214 211 208 209 209 208 213 218 221 226 232 238 270 307 328 337 342 345 348 351 352 349 352 358 7 44 46 16 352 355 2 12 25 33 38 37 45 57 340 356 55 355 341 314 0 27
213 212 209 208 206 207 207 206 216 222 225 234 243 262 297 318 326 334 338 341 344 345 345 350 359 32 67 75 8 0 350 8 15 12 14 40 49 60 90 45 68 330 27 0 350 1 63
210 210 208 206 204 205 207 202 212 220 226 232 251 274 293 310 319 324 329 332 337 340 342 346 5 56 62 169 26 9 358 355 357 347 359 40 88 68 120 22 334 2 69 25 10 344 17
205 208 206 205 204 201 204 203 206 217 224 235 247 277 298 311 319 319 323 327 332 337 335 348 24 70 104 14 13 4 351 343 333 343 310 321 111 100 50 15 19 54 48 42 15 4 343
202 204 203 202 203 199 202 202 202 214 220 234 250 276 299 316 320 314 317 321 330 346 15 34 54 88 79 7 8 10 353 325 327 2 51 100 75 77 21 67 24 9 51 22 1 17 15
207 201 200 200 201 199 200 200 202 209 216 232 248 280 303 318 329 320 314 309 332 354 11 28 55 53 8 313 330 351 1 350 351 342 28 39 48 60 29 57 154 356 55 3 26 14 67
203 199 198 197 198 198 198 198 200 203 213 224 237 266 299 312 335 337 328 169 32 0 40 89 176 124 295 332 6 355 349 352 22 52 46 11 73 91 46 82 92 100 96 81 35 179 65
253 197 196 194 197 194 197 196 199 201 209 218 232 250 288 309 324 346 33 78 131 148 88 39 279 318 300 354 26 335 2 60 47 46 17 40 78 166 87 63 86 67 105 350 100 101 89
194 191 193 194 194 189 194 193 197 201 206 215 233 254 284 306 320 27 80 98 102 135 87 0 8 44 332 25 25 326 25 36 65 40 26 108 133 102 99 41 60 44 110 273 128 68 115
243 185 191 192 191 187 190 191 197 198 205 208 230 268 307 269 167 80 63 90 102 141 81 319 355 353 4 7 52 353 5 78 34 56 44 73 3 74 61 78 50 102 124 176 212 141 204
242 251 192 191 188 185 186 188 194 196 201 203 220 262 357 188 137 88 115 136 131 84 67 270 355 323 13 89 261 347 24 28 61 3 63 225 26 47 57 47 334 219 36 294 174 120 101
244 245 189 188 187 184 186 186 186 194 197 198 203 209 218 118 97 102 126 137 110 49 177 58 38 24 51 14 15 329 23 35 52 74 32 16 308 57 335 86 53 307 76 48 50 92 53
239 242 190 184 186 183 185 187 181 189 196 184 177 148 225 119 96 80 136 83 51 110 317 158 101 66 74 14 33 37 43 23 50 46 11 353 7 330 35 9 0 35 42 354 6 11 219
233 243 186 183 184 186 181 187 175 188 195 170 159 132 88 78 44 136 142 56 102 140 185 148 112 84 84 22 23 23 55 33 18 46 64 60 332 8 336 79 280 39 109 135 271 249 274
238 234 190 181 183 185 180 182 173 190 178 170 150 130 93 14 358 135 77 69 181 191 164 129 69 91 42 36 105 78 49 78 23 16 95 36 287 325 55 333 76 113 57 175 106 1 15
220 213 189 181 181 182 182 178 179 182 171 167 148 111 48 357 347 65 78 170 126 211 119 86 119 136 156 160 83 76 136 333 108 33 160 148 331 357 295 356 31 83 149 53 16 254 268
212 223 191 180 181 182 182 178 179 175 170 155 141 95 2 355 34 52 148 187 145 97 104 90 136 121 124 143 127 134 152 325 26 58 69 101 103 291 20 20 334 355 35 54 113 132 208
195 223 200 182 181 180 180 178 175 173 163 166 123 111 356 60 55 330 141 164 156 133 85 83 95 107 145 138 104 131 169 39 335 187 96 52 130 289 326 288 25 90 118 105 120 228 124
194 219 205 183 181 180 178 178 176 174 166 153 98 122 23 42 138 327 298 91 103 124 113 104 106 96 68 124 119 105 122 352 8 86 158 183 50 18 339 5 26 72 32 90 95 88 209
191 203 196 181 179 180 179 178 176 174 171 163 115 95 6 45 51 143 139 147 112 25 92 93 120 91 97 110 33 153 139 4 7 94 74 82 120 174 203 202 156 242 202 157 150 157 209
163 174 177 173 174 178 179 178 178 177 177 155 34 201 190 180 244 175 121 142 132 133 90 109 70 146 149 145 102 142 133 123 28 132 69 106 218 196 251 233 228 236 244 221 203 199 188
152 153 160 161 167 172 176 178 179 178 169 94 127 129 32 82 94 114 33 196 145 125 128 175 135 152 149 159 184 193 141 186 194 184 111 30 234 30 304 55 350 259 249 228 201 223 251
142 144 149 141 152 162 168 170 174 177 163 110 118 102 103 324 87 104 198 175 188 127 44 69 149 118 131 185 147 85 132 140 161 151 149 124 131 101 260 358 315 292 257 206 156 162 154
140 140 135 136 141 153 163 164 167 169 173 121 136 117 94 202 127 180 168 168 148 190 142 50 91 114 164 108 108 46 47 68 82 58 111 132 110 98 265 12 356 248 328 194 146 152 143
125 129 126 121 139 157 160 160 164 168 155 151 141 128 119 107 144 136 130 115 85 51 70 85 25 3 136 67 72 50 350 23 37 59 76 91 124 88 137 221 293 321 195 142 159 258 176
112 114 117 120 118 118 147 160 160 171 166 144 132 111 104 121 238 103 127 156 141 122 59 65 43 76 66 80 84 143 206 199 188 98 57 71 65 119 80 143 242 234 151 129 125 274 182
118 119 120 118 109 112 121 135 159 168 175 163 123 124 98 107 297 187 153 167 123 104 109 140 154 84 45 97 97 153 232 192 181 177 167 132 86 170 136 239 285 229 150 130 121 244 170
105 105 105 104 105 113 127 133 136 161 164 158 109 96 85 97 351 348 21 125 94 119 141 178 79 330 52 108 133 208 158 218 168 169 171 163 155 193 144 181 280 145 87 177 178 82 158
98 97 100 97 92 90 98 127 151 153 157 146 106 102 89 78 143 86 75 60 61 91 121 28 157 159 174 91 67 104 165 52 150 230 96 206 188 180 186 212 251 306 223 87 137 141 169
Height
778 783 788 792 796 799 803 806 808 809 809 809 809 809 807 806 804 802 801 799 797 795 793 790 788 786 785 791 795 791 788 786 784 783 782 784 789 793 805 802 800 804 804 802 799 798 796
774 779 784 790 793 797 801 804 807 808 809 808 807 807 807 806 804 802 800 798 796 795 792 790 789 787 787 803 794 792 789 787 786 786 786 786 789 790 798 801 804 802 806 805 801 801 801
768 775 780 787 791 795 799 801 805 807 808 808 807 806 806 805 804 802 800 798 796 794 792 791 789 788 791 798 794 793 791 790 789 788 788 787 787 791 795 802 798 801 810 808 811 807 803
764 770 776 783 789 793 797 800 803 805 806 807 807 806 805 804 802 800 798 797 795 793 792 791 790 790 798 795 795 793 791 790 789 787 787 787 787 791 797 797 808 815 819 831 818 816 808
758 765 772 779 787 791 796 799 801 804 805 806 806 806 805 804 801 799 797 795 794 793 792 792 792 791 802 796 796 795 793 790 786 786 786 787 788 802 804 818 830 832 839 834 830 828 822
753 761 768 776 783 789 794 797 800 802 804 805 805 804 803 802 801 798 796 795 795 794 794 793 793 800 799 803 797 795 793 790 789 787 790 794 806 819 826 830 851 837 841 838 843 850 842
751 758 765 772 780 787 792 795 799 801 803 804 804 803 803 801 800 797 795 794 798 800 797 805 806 804 802 800 798 796 793 791 791 797 814 811 826 837 827 823 826 834 842 840 840 843 849
748 754 761 768 778 783 790 793 798 800 802 803 804 803 802 801 799 796 794 798 803 805 810 804 803 803 802 802 805 799 796 800 804 818 812 824 834 824 825 825 831 834 844 846 844 845 850
746 752 759 766 775 779 787 791 795 799 801 802 803 802 801 800 799 798 796 801 802 802 812 808 805 805 805 805 810 809 802 805 813 822 824 832 826 821 825 835 838 838 847 844 845 848 853
750 744 756 765 772 776 784 789 794 797 800 801 802 801 800 799 801 799 801 802 802 804 831 824 813 809 807 806 815 808 806 809 816 824 822 829 822 827 833 837 836 841 836 839 841 854 868
738 744 751 760 765 773 781 787 792 796 799 799 800 800 799 800 798 800 803 803 803 805 861 820 815 808 808 815 815 814 812 809 825 826 825 834 830 832 837 836 834 838 838 839 839 851 854
740 744 748 756 764 771 779 784 789 794 798 799 799 800 800 800 800 802 802 802 805 832 847 825 815 818 819 820 821 818 820 817 822 829 831 835 826 829 832 833 834 836 842 852 859 864 872
738 741 745 755 763 768 777 783 787 793 798 798 798 799 801 801 802 802 802 805 833 854 821 830 825 821 825 831 830 832 842 848 851 843 853 843 838 835 833 836 838 845 856 872 865 874 874
739 738 745 752 760 771 775 783 783 792 798 795 797 799 801 802 803 802 803 816 827 832 827 819 822 825 832 831 837 842 846 857 853 855 866 862 857 844 840 842 848 851 860 878 865 880 879
736 737 743 753 761 767 771 779 784 794 794 796 798 800 802 803 803 802 811 848 840 827 819 824 825 833 837 833 837 847 855 859 859 859 857 864 855 847 842 841 844 851 869 860 878 883 884
734 737 741 748 757 764 771 778 785 791 792 796 797 799 804 804 803 802 819 833 820 818 815 818 832 833 842 841 842 847 853 857 857 859 857 864 868 853 850 844 848 848 856 869 883 876 881
733 737 740 750 758 765 773 779 784 788 791 794 798 804 806 804 804 810 828 825 818 815 813 822 831 835 837 842 845 852 855 859 856 857 859 862 869 861 855 864 864 866 868 875 879 886 886
730 736 737 748 756 764 770 777 779 785 788 796 798 807 805 801 818 831 824 816 813 817 816 822 826 831 836 839 846 852 857 857 857 858 862 866 877 876 868 866 864 864 871 877 884 880 890
726 739 739 747 755 762 768 773 779 785 786 795 805 808 804 803 825 829 821 815 814 817 819 824 831 830 833 843 850 857 860 861 859 860 863 865 876 879 872 869 866 874 872 872 885 892 886
734 741 741 749 755 761 768 774 778 783 789 794 802 812 811 815 823 820 820 819 821 818 821 824 831 831 838 844 853 863 863 862 861 861 863 867 881 871 878 867 876 875 877 876 881 894 883
731 735 741 747 755 764 769 774 780 784 788 789 801 810 811 823 821 819 815 818 822 824 822 824 832 834 840 849 853 860 863 864 864 864 865 870 872 876 875 876 875 877 878 881 885 878 878
730 735 743 750 755 763 767 772 776 781 785 788 801 808 813 818 816 818 821 822 821 824 826 828 832 837 838 847 847 858 859 863 862 867 866 874 877 878 876 876 882 883 877 877 879 876 878
737 742 747 751 757 763 769 774 779 782 786 788 795 799 802 825 824 822 825 822 820 823 831 830 832 840 843 844 846 849 852 854 855 865 873 876 885 893 880 886 884 877 868 871 871 871 869
742 745 747 750 757 765 770 773 776 781 784 786 791 795 806 829 821 819 818 817 822 823 830 837 835 838 846 846 850 853 857 860 861 867 869 880 885 897 901 893 921 859 863 860 865 875 877
743 749 753 756 763 770 772 774 776 781 785 787 791 794 803 828 819 816 819 826 829 834 839 840 844 843 843 849 863 868 882 862 862 867 871 874 885 909 925 910 878 859 866 866 860 865 878
752 753 755 760 766 768 772 775 778 782 785 789 793 794 798 816 824 817 822 824 834 842 845 846 847 844 848 865 874 894 885 864 869 872 876 879 883 891 935 930 905 854 859 860 861 872 875
759 761 762 762 764 770 774 777 779 782 787 791 794 796 798 819 823 822 823 827 830 837 847 847 845 847 852 867 883 888 877 864 871 868 877 880 887 893 914 931 888 862 858 859 867 865 873
764 764 765 769 768 775 778 778 781 784 788 791 795 797 799 818 825 824 824 824 829 832 839 845 851 856 862 866 876 883 886 868 861 862 869 873 889 894 896 909 895 858 863 865 863 870 872
765 769 768 767 772 779 779 780 782 785 789 790 795 799 801 810 828 827 827 826 826 827 834 841 841 847 850 865 877 880 879 884 867 871 861 869 866 873 874 869 861 861 860 864 864 867 873